StationID,Date,MaxTemp,MinTemp,Precipitation,Snowfall,SnowDepth
"US1ORLA0062","2007-12-07",,,51.00,0.00,
"US1ORLA0062","2007-12-08",,,15.00,0.00,
"US1ORLA0062","2007-12-09",,,0.00,0.00,
"US1ORLA0062","2007-12-10",,,0.00,0.00,
"US1ORLA0062","2007-12-11",,,0.00,0.00,
"US1ORLA0062","2007-12-12",,,0.00,0.00,
"US1ORLA0062","2007-12-13",,,0.00,0.00,
"US1ORLA0062","2007-12-14",,,0.00,0.00,
"US1ORLA0062","2007-12-15",,,20.00,0.00,
"US1ORLA0062","2007-12-16",,,0.00,0.00,
"US1ORLA0062","2007-12-17",,,99.00,0.00,
"US1ORLA0062","2007-12-18",,,46.00,0.00,
"US1ORLA0062","2007-12-19",,,51.00,0.00,
"US1ORLA0062","2007-12-20",,,279.00,0.00,
"US1ORLA0062","2007-12-21",,,3.00,0.00,
"US1ORLA0062","2007-12-22",,,33.00,0.00,
"US1ORLA0062","2007-12-23",,,81.00,0.00,
"US1ORLA0062","2007-12-24",,,173.00,0.00,
"US1ORLA0062","2007-12-26",,,69.00,0.00,
"US1ORLA0062","2007-12-27",,,25.00,0.00,
"US1ORLA0062","2007-12-28",,,64.00,0.00,
"US1ORLA0062","2007-12-29",,,13.00,0.00,
"US1ORLA0062","2007-12-30",,,69.00,0.00,
"US1ORLA0062","2007-12-31",,,15.00,0.00,
"US1ORLA0062","2008-01-01",,,5.00,0.00,
"US1ORLA0062","2008-01-02",,,20.00,0.00,
"US1ORLA0062","2008-01-03",,,61.00,0.00,
"US1ORLA0062","2008-01-04",,,147.00,0.00,
"US1ORLA0062","2008-01-05",,,213.00,0.00,
"US1ORLA0062","2008-01-06",,,122.00,0.00,
"US1ORLA0062","2008-01-07",,,53.00,0.00,
"US1ORLA0062","2008-01-08",,,119.00,0.00,
"US1ORLA0062","2008-01-09",,,71.00,0.00,
"US1ORLA0062","2008-01-10",,,41.00,0.00,
"US1ORLA0062","2008-01-11",,,104.00,0.00,
"US1ORLA0062","2008-01-12",,,64.00,0.00,
"US1ORLA0062","2008-01-13",,,5.00,0.00,
"US1ORLA0062","2008-01-14",,,0.00,0.00,
"US1ORLA0062","2008-01-15",,,36.00,0.00,
"US1ORLA0062","2008-01-16",,,3.00,0.00,
"US1ORLA0062","2008-01-17",,,0.00,0.00,
"US1ORLA0062","2008-01-18",,,0.00,0.00,
"US1ORLA0062","2008-01-19",,,0.00,0.00,
"US1ORLA0062","2008-01-20",,,15.00,0.00,
"US1ORLA0062","2008-01-21",,,10.00,0.00,
"US1ORLA0062","2008-01-22",,,0.00,0.00,
"US1ORLA0062","2008-01-23",,,0.00,0.00,
"US1ORLA0062","2008-01-24",,,0.00,0.00,
"US1ORLA0062","2008-01-25",,,0.00,0.00,
"US1ORLA0062","2008-01-26",,,10.00,0.00,
"US1ORLA0062","2008-01-27",,,305.00,,102.00
"US1ORLA0062","2008-01-28",,,53.00,13.00,127.00
"US1ORLA0062","2008-01-29",,,58.00,0.00,
"US1ORLA0062","2008-01-30",,,112.00,0.00,38.00
"US1ORLA0062","2008-01-31",,,130.00,0.00,
"US1ORLA0062","2008-02-01",,,185.00,0.00,
"US1ORLA0062","2008-02-02",,,20.00,0.00,
"US1ORLA0062","2008-02-03",,,109.00,0.00,
"US1ORLA0062","2008-02-04",,,8.00,0.00,
"US1ORLA0062","2008-02-05",,,3.00,0.00,
"US1ORLA0062","2008-02-06",,,15.00,0.00,
"US1ORLA0062","2008-02-07",,,58.00,0.00,
"US1ORLA0062","2008-02-08",,,81.00,0.00,
"US1ORLA0062","2008-02-09",,,0.00,0.00,
"US1ORLA0062","2008-02-10",,,3.00,0.00,
"US1ORLA0062","2008-02-11",,,0.00,0.00,
"US1ORLA0062","2008-02-12",,,0.00,0.00,
"US1ORLA0062","2008-02-13",,,0.00,0.00,
"US1ORLA0062","2008-02-14",,,0.00,0.00,
"US1ORLA0062","2008-02-15",,,0.00,0.00,
"US1ORLA0062","2008-02-16",,,0.00,0.00,
"US1ORLA0062","2008-02-17",,,0.00,0.00,
"US1ORLA0062","2008-02-18",,,3.00,0.00,
"US1ORLA0062","2008-02-21",,,18.00,0.00,
"US1ORLA0062","2008-02-22",,,3.00,0.00,
"US1ORLA0062","2008-02-23",,,0.00,0.00,
"US1ORLA0062","2008-02-24",,,30.00,0.00,
"US1ORLA0062","2008-02-25",,,15.00,0.00,
"US1ORLA0062","2008-02-26",,,58.00,0.00,
"US1ORLA0062","2008-02-27",,,5.00,0.00,
"US1ORLA0062","2008-02-28",,,0.00,0.00,
"US1ORLA0062","2008-02-29",,,0.00,0.00,
"US1ORLA0062","2008-03-01",,,86.00,0.00,
"US1ORLA0062","2008-03-02",,,36.00,0.00,
"US1ORLA0062","2008-03-03",,,0.00,0.00,
"US1ORLA0062","2008-03-04",,,0.00,0.00,
"US1ORLA0062","2008-03-05",,,15.00,0.00,
"US1ORLA0062","2008-03-06",,,0.00,0.00,
"US1ORLA0062","2008-03-07",,,0.00,0.00,
"US1ORLA0062","2008-03-08",,,56.00,0.00,
"US1ORLA0062","2008-03-09",,,0.00,0.00,
"US1ORLA0062","2008-03-10",,,0.00,0.00,
"US1ORLA0062","2008-03-11",,,51.00,0.00,
"US1ORLA0062","2008-03-12",,,3.00,0.00,
"US1ORLA0062","2008-03-13",,,51.00,0.00,
"US1ORLA0062","2008-03-14",,,114.00,0.00,
"US1ORLA0062","2008-03-15",,,104.00,0.00,
"US1ORLA0062","2008-03-16",,,15.00,0.00,
"US1ORLA0062","2008-03-17",,,20.00,0.00,
"US1ORLA0062","2008-03-18",,,147.00,0.00,
"US1ORLA0062","2008-03-19",,,36.00,0.00,
"US1ORLA0062","2008-03-20",,,102.00,0.00,
"US1ORLA0062","2008-03-21",,,66.00,0.00,
"US1ORLA0062","2008-03-22",,,3.00,0.00,
"US1ORLA0062","2008-03-23",,,8.00,0.00,
"US1ORLA0062","2008-03-24",,,25.00,0.00,
"US1ORLA0062","2008-03-25",,,0.00,0.00,
"US1ORLA0062","2008-03-26",,,46.00,0.00,
"US1ORLA0062","2008-03-27",,,104.00,0.00,
"US1ORLA0062","2008-03-28",,,23.00,0.00,
"US1ORLA0062","2008-03-29",,,25.00,0.00,
"US1ORLA0062","2008-03-30",,,36.00,0.00,
"US1ORLA0062","2008-03-31",,,18.00,0.00,
"US1ORLA0062","2008-04-01",,,0.00,0.00,
"US1ORLA0062","2008-04-02",,,0.00,0.00,
"US1ORLA0062","2008-04-03",,,0.00,0.00,
"US1ORLA0062","2008-04-04",,,3.00,0.00,
"US1ORLA0062","2008-04-05",,,36.00,0.00,
"US1ORLA0062","2008-04-06",,,25.00,0.00,
"US1ORLA0062","2008-04-07",,,18.00,0.00,
"US1ORLA0062","2008-04-08",,,30.00,0.00,
"US1ORLA0062","2008-04-09",,,10.00,0.00,
"US1ORLA0062","2008-04-10",,,13.00,0.00,
"US1ORLA0062","2008-04-11",,,0.00,0.00,
"US1ORLA0062","2008-04-12",,,0.00,0.00,
"US1ORLA0062","2008-04-13",,,0.00,0.00,
"US1ORLA0062","2008-04-14",,,23.00,0.00,
"US1ORLA0062","2008-04-15",,,38.00,0.00,
"US1ORLA0062","2008-04-16",,,8.00,0.00,
"US1ORLA0062","2008-04-17",,,0.00,0.00,
"US1ORLA0062","2008-04-18",,,8.00,0.00,
"US1ORLA0062","2008-04-19",,,20.00,0.00,
"US1ORLA0062","2008-04-20",,,51.00,0.00,
"US1ORLA0062","2008-04-21",,,8.00,0.00,
"US1ORLA0062","2008-04-22",,,30.00,0.00,
"US1ORLA0062","2008-04-23",,,114.00,0.00,
"US1ORLA0062","2008-04-24",,,25.00,0.00,
"US1ORLA0062","2008-04-25",,,3.00,0.00,
"US1ORLA0062","2008-04-26",,,0.00,0.00,
"US1ORLA0062","2008-04-27",,,0.00,0.00,
"US1ORLA0062","2008-04-28",,,0.00,0.00,
"US1ORLA0062","2008-04-29",,,38.00,0.00,
"US1ORLA0062","2008-04-30",,,13.00,0.00,
"US1ORLA0062","2008-05-01",,,25.00,0.00,
"US1ORLA0062","2008-05-03",,,0.00,0.00,
"US1ORLA0062","2008-05-04",,,0.00,0.00,
"US1ORLA0062","2008-05-05",,,0.00,0.00,
"US1ORLA0062","2008-05-06",,,0.00,0.00,
"US1ORLA0062","2008-05-07",,,0.00,0.00,
"US1ORLA0062","2008-05-08",,,0.00,0.00,
"US1ORLA0062","2008-05-09",,,0.00,0.00,
"US1ORLA0062","2008-05-10",,,0.00,0.00,
"US1ORLA0062","2008-05-11",,,5.00,0.00,
"US1ORLA0062","2008-05-12",,,0.00,0.00,
"US1ORLA0062","2008-05-14",,,0.00,0.00,
"US1ORLA0062","2008-05-15",,,0.00,0.00,
"US1ORLA0062","2008-05-17",,,0.00,0.00,
"US1ORLA0062","2008-05-18",,,0.00,0.00,
"US1ORLA0062","2008-05-19",,,0.00,0.00,
"US1ORLA0062","2008-05-20",,,43.00,0.00,
"US1ORLA0062","2008-05-21",,,0.00,0.00,
"US1ORLA0062","2008-05-22",,,5.00,0.00,
"US1ORLA0062","2008-05-23",,,18.00,0.00,
"US1ORLA0062","2008-05-24",,,18.00,0.00,
"US1ORLA0062","2008-05-25",,,15.00,0.00,
"US1ORLA0062","2008-05-26",,,0.00,0.00,
"US1ORLA0062","2008-05-27",,,0.00,0.00,
"US1ORLA0062","2008-05-28",,,28.00,0.00,
"US1ORLA0062","2008-05-29",,,28.00,0.00,
"US1ORLA0062","2008-05-30",,,0.00,0.00,
"US1ORLA0062","2008-05-31",,,0.00,0.00,
"US1ORLA0062","2008-06-01",,,3.00,0.00,
"US1ORLA0062","2008-06-02",,,0.00,0.00,
"US1ORLA0062","2008-06-03",,,91.00,0.00,
"US1ORLA0062","2008-06-04",,,28.00,0.00,
"US1ORLA0062","2008-06-05",,,3.00,0.00,
"US1ORLA0062","2008-06-06",,,5.00,0.00,
"US1ORLA0062","2008-06-07",,,18.00,0.00,
"US1ORLA0062","2008-06-08",,,0.00,0.00,
"US1ORLA0062","2008-06-09",,,0.00,0.00,
"US1ORLA0062","2008-06-10",,,3.00,0.00,
"US1ORLA0062","2008-06-11",,,0.00,0.00,
"US1ORLA0062","2008-06-12",,,0.00,0.00,
"US1ORLA0062","2008-06-13",,,0.00,0.00,
"US1ORLA0062","2008-06-22",,,0.00,0.00,
"US1ORLA0062","2008-06-23",,,0.00,0.00,
"US1ORLA0062","2008-06-25",,,0.00,0.00,
"US1ORLA0062","2008-06-29",,,0.00,0.00,
"US1ORLA0062","2008-06-30",,,5.00,0.00,
"US1ORLA0062","2008-07-04",,,0.00,0.00,
"US1ORLA0062","2008-07-22",,,18.00,0.00,
"US1ORLA0062","2008-07-23",,,0.00,0.00,
"US1ORLA0062","2008-07-24",,,0.00,0.00,
"US1ORLA0062","2008-07-25",,,0.00,0.00,
"US1ORLA0062","2008-07-27",,,0.00,0.00,
"US1ORLA0062","2008-07-28",,,0.00,0.00,
"US1ORLA0062","2008-07-29",,,0.00,0.00,
"US1ORLA0062","2008-07-30",,,3.00,0.00,
"US1ORLA0062","2008-07-31",,,0.00,0.00,
"US1ORLA0062","2008-08-01",,,0.00,0.00,
"US1ORLA0062","2008-08-02",,,0.00,0.00,
"US1ORLA0062","2008-08-03",,,0.00,0.00,
"US1ORLA0062","2008-08-04",,,0.00,0.00,
"US1ORLA0062","2008-08-05",,,0.00,0.00,
"US1ORLA0062","2008-08-06",,,0.00,0.00,
"US1ORLA0062","2008-08-07",,,0.00,0.00,
"US1ORLA0062","2008-08-09",,,5.00,0.00,
"US1ORLA0062","2008-08-10",,,0.00,0.00,
"US1ORLA0062","2008-08-12",,,0.00,0.00,
"US1ORLA0062","2008-08-13",,,0.00,0.00,
"US1ORLA0062","2008-08-14",,,0.00,0.00,
"US1ORLA0062","2008-08-15",,,0.00,0.00,
"US1ORLA0062","2008-08-16",,,0.00,0.00,
"US1ORLA0062","2008-08-17",,,0.00,0.00,
"US1ORLA0062","2008-08-18",,,8.00,0.00,
"US1ORLA0062","2008-08-19",,,3.00,0.00,
"US1ORLA0062","2008-08-20",,,18.00,0.00,
"US1ORLA0062","2008-08-21",,,3.00,0.00,
"US1ORLA0062","2008-08-22",,,5.00,0.00,
"US1ORLA0062","2008-08-23",,,0.00,0.00,
"US1ORLA0062","2008-08-24",,,0.00,0.00,
"US1ORLA0062","2008-08-25",,,130.00,0.00,
"US1ORLA0062","2008-08-26",,,0.00,0.00,
"US1ORLA0062","2008-08-27",,,0.00,0.00,
"US1ORLA0062","2008-08-29",,,0.00,0.00,
"US1ORLA0062","2008-08-30",,,5.00,0.00,
"US1ORLA0062","2008-08-31",,,0.00,0.00,
"US1ORLA0062","2008-09-01",,,48.00,0.00,
"US1ORLA0062","2008-09-02",,,0.00,0.00,
"US1ORLA0062","2008-09-03",,,0.00,0.00,
"US1ORLA0062","2008-09-04",,,0.00,0.00,
"US1ORLA0062","2008-09-05",,,0.00,0.00,
"US1ORLA0062","2008-09-06",,,0.00,0.00,
"US1ORLA0062","2008-09-07",,,0.00,0.00,
"US1ORLA0062","2008-09-08",,,0.00,0.00,
"US1ORLA0062","2008-09-09",,,0.00,0.00,
"US1ORLA0062","2008-09-10",,,0.00,0.00,
"US1ORLA0062","2008-09-11",,,0.00,0.00,
"US1ORLA0062","2008-09-12",,,0.00,0.00,
"US1ORLA0062","2008-09-13",,,0.00,0.00,
"US1ORLA0062","2008-09-14",,,0.00,0.00,
"US1ORLA0062","2008-09-15",,,0.00,0.00,
"US1ORLA0062","2008-09-16",,,0.00,0.00,
"US1ORLA0062","2008-09-17",,,0.00,0.00,
"US1ORLA0062","2008-09-18",,,0.00,0.00,
"US1ORLA0062","2008-09-19",,,0.00,0.00,
"US1ORLA0062","2008-09-20",,,0.00,0.00,
"US1ORLA0062","2008-09-21",,,18.00,0.00,
"US1ORLA0062","2008-09-22",,,20.00,0.00,
"US1ORLA0062","2008-09-23",,,0.00,0.00,
"US1ORLA0062","2008-09-24",,,0.00,0.00,
"US1ORLA0062","2008-09-25",,,13.00,0.00,
"US1ORLA0062","2008-09-26",,,0.00,0.00,
"US1ORLA0062","2008-09-27",,,0.00,0.00,
"US1ORLA0062","2008-09-28",,,0.00,0.00,
"US1ORLA0062","2008-09-29",,,0.00,0.00,
"US1ORLA0062","2008-09-30",,,0.00,0.00,
"US1ORLA0062","2008-10-01",,,0.00,0.00,
"US1ORLA0062","2008-10-02",,,8.00,0.00,
"US1ORLA0062","2008-10-04",,,165.00,0.00,
"US1ORLA0062","2008-10-05",,,30.00,0.00,
"US1ORLA0062","2008-10-06",,,10.00,0.00,
"US1ORLA0062","2008-10-07",,,33.00,0.00,
"US1ORLA0062","2008-10-08",,,3.00,0.00,
"US1ORLA0062","2008-10-09",,,0.00,0.00,
"US1ORLA0062","2008-10-10",,,5.00,0.00,
"US1ORLA0062","2008-10-11",,,0.00,0.00,
"US1ORLA0062","2008-10-12",,,0.00,0.00,
"US1ORLA0062","2008-10-13",,,0.00,0.00,
"US1ORLA0062","2008-10-15",,,0.00,0.00,
"US1ORLA0062","2008-10-16",,,0.00,0.00,
"US1ORLA0062","2008-10-17",,,0.00,0.00,
"US1ORLA0062","2008-10-18",,,0.00,0.00,
"US1ORLA0062","2008-10-19",,,0.00,0.00,
"US1ORLA0062","2008-10-20",,,18.00,0.00,
"US1ORLA0062","2008-10-21",,,13.00,0.00,
"US1ORLA0062","2008-10-22",,,3.00,0.00,
"US1ORLA0062","2008-10-26",,,0.00,0.00,
"US1ORLA0062","2008-10-27",,,0.00,0.00,
"US1ORLA0062","2008-10-29",,,0.00,0.00,
"US1ORLA0062","2008-10-31",,,56.00,0.00,
"US1ORLA0062","2008-11-01",,,5.00,0.00,
"US1ORLA0062","2008-11-02",,,56.00,0.00,
"US1ORLA0062","2008-11-03",,,104.00,0.00,
"US1ORLA0062","2008-11-04",,,257.00,0.00,
"US1ORLA0062","2008-11-05",,,69.00,0.00,
"US1ORLA0062","2008-11-06",,,102.00,0.00,
"US1ORLA0062","2008-11-07",,,0.00,0.00,
"US1ORLA0062","2008-11-08",,,0.00,0.00,
"US1ORLA0062","2008-11-09",,,107.00,0.00,
"US1ORLA0062","2008-11-10",,,23.00,0.00,
"US1ORLA0062","2008-11-11",,,76.00,0.00,
"US1ORLA0062","2008-11-12",,,53.00,0.00,
"US1ORLA0062","2008-11-13",,,107.00,0.00,
"US1ORLA0062","2008-11-14",,,3.00,0.00,
"US1ORLA0062","2008-11-15",,,0.00,0.00,
"US1ORLA0062","2008-11-16",,,3.00,0.00,
"US1ORLA0062","2008-11-17",,,3.00,0.00,
"US1ORLA0062","2008-11-18",,,0.00,0.00,
"US1ORLA0062","2008-11-19",,,0.00,0.00,
"US1ORLA0062","2008-11-20",,,38.00,0.00,
"US1ORLA0062","2008-11-21",,,69.00,0.00,
"US1ORLA0062","2008-11-22",,,61.00,0.00,
"US1ORLA0062","2008-11-23",,,3.00,0.00,
"US1ORLA0062","2008-11-24",,,3.00,0.00,
"US1ORLA0062","2008-11-25",,,3.00,0.00,
"US1ORLA0062","2008-11-26",,,3.00,0.00,
"US1ORLA0062","2008-11-28",,,13.00,0.00,
"US1ORLA0062","2008-11-30",,,3.00,0.00,
"US1ORLA0062","2008-12-01",,,3.00,0.00,
"US1ORLA0062","2008-12-02",,,30.00,0.00,
"US1ORLA0062","2008-12-03",,,3.00,0.00,
"US1ORLA0062","2008-12-05",,,3.00,0.00,
"US1ORLA0062","2008-12-08",,,18.00,0.00,
"US1ORLA0062","2008-12-09",,,3.00,0.00,
"US1ORLA0062","2008-12-10",,,3.00,0.00,
"US1ORLA0062","2008-12-11",,,0.00,0.00,
"US1ORLA0062","2008-12-12",,,3.00,0.00,
"US1ORLA0062","2008-12-13",,,150.00,0.00,
"US1ORLA0062","2008-12-14",,,28.00,0.00,
"US1ORLA0062","2008-12-15",,,3.00,89.00,89.00
"US1ORLA0062","2008-12-16",,,48.00,,25.00
"US1ORLA0062","2008-12-17",,,0.00,0.00,25.00
"US1ORLA0062","2008-12-18",,,102.00,,
"US1ORLA0062","2008-12-19",,,76.00,51.00,51.00
"US1ORLA0062","2008-12-20",,,38.00,,
"US1ORLA0062","2008-12-21",,,117.00,,
"US1ORLA0062","2008-12-22",,,76.00,,
"US1ORLA0062","2008-12-23",,,76.00,,
"US1ORLA0062","2008-12-24",,,8.00,,
"US1ORLA0062","2008-12-27",,,41.00,,
"US1ORLA0062","2008-12-28",,,132.00,,
"US1ORLA0062","2008-12-29",,,155.00,,
"US1ORLA0062","2008-12-30",,,15.00,,
"US1ORLA0062","2008-12-31",,,13.00,,
"US1ORLA0062","2009-01-01",,,13.00,,
"US1ORLA0062","2009-01-02",,,196.00,,
"US1ORLA0062","2009-01-03",,,13.00,,
"US1ORLA0062","2009-01-04",,,0.00,,
"US1ORLA0062","2009-01-05",,,38.00,,
"US1ORLA0062","2009-01-06",,,23.00,,
"US1ORLA0062","2009-01-07",,,3.00,,
"US1ORLA0062","2009-01-08",,,99.00,,
"US1ORLA0062","2009-01-09",,,8.00,,
"US1ORLA0062","2009-01-10",,,0.00,,
"US1ORLA0062","2009-01-11",,,5.00,,
"US1ORLA0062","2009-01-12",,,8.00,,
"US1ORLA0062","2009-01-13",,,8.00,,
"US1ORLA0062","2009-01-14",,,3.00,,
"US1ORLA0062","2009-01-16",,,0.00,,
"US1ORLA0062","2009-01-17",,,0.00,,
"US1ORLA0062","2009-01-18",,,0.00,0.00,
"US1ORLA0062","2009-01-19",,,3.00,,
"US1ORLA0062","2009-01-20",,,0.00,0.00,
"US1ORLA0062","2009-01-23",,,0.00,,
"US1ORLA0062","2009-01-24",,,10.00,,
"US1ORLA0062","2009-01-25",,,81.00,,
"US1ORLA0062","2009-01-26",,,8.00,,
"US1ORLA0062","2009-01-28",,,38.00,,
"US1ORLA0062","2009-01-29",,,3.00,,
"US1ORLA0062","2009-01-30",,,3.00,,
"US1ORLA0062","2009-01-31",,,5.00,,
"US1ORLA0062","2009-02-01",,,0.00,,
"US1ORLA0062","2009-02-02",,,0.00,,
"US1ORLA0062","2009-02-04",,,0.00,,
"US1ORLA0062","2009-02-05",,,0.00,0.00,
"US1ORLA0062","2009-02-06",,,76.00,,
"US1ORLA0062","2009-02-07",,,5.00,,
"US1ORLA0062","2009-02-08",,,0.00,,
"US1ORLA0062","2009-02-09",,,8.00,,
"US1ORLA0062","2009-02-13",,,30.00,,
"US1ORLA0062","2009-02-14",,,15.00,,
"US1ORLA0062","2009-02-15",,,33.00,,
"US1ORLA0062","2009-02-16",,,0.00,,
"US1ORLA0062","2009-02-17",,,56.00,,
"US1ORLA0062","2009-02-18",,,3.00,,
"US1ORLA0062","2009-02-19",,,0.00,,
"US1ORLA0062","2009-02-20",,,0.00,,
"US1ORLA0062","2009-02-21",,,0.00,,
"US1ORLA0062","2009-02-22",,,15.00,,
"US1ORLA0062","2009-02-23",,,145.00,,
"US1ORLA0062","2009-02-24",,,267.00,,
"US1ORLA0062","2009-02-25",,,147.00,,
"US1ORLA0062","2009-02-27",,,3.00,,
"US1ORLA0062","2009-02-28",,,0.00,0.00,
"US1ORLA0062","2009-03-01",,,18.00,,
"US1ORLA0062","2009-03-02",,,117.00,,
"US1ORLA0062","2009-03-03",,,18.00,,
"US1ORLA0062","2009-03-04",,,0.00,,
"US1ORLA0062","2009-03-05",,,15.00,,
"US1ORLA0062","2009-03-06",,,76.00,,
"US1ORLA0062","2009-03-07",,,0.00,,
"US1ORLA0062","2009-03-13",,,3.00,,
"US1ORLA0062","2009-03-14",,,0.00,,
"US1ORLA0062","2009-03-15",,,97.00,,
"US1ORLA0062","2009-03-16",,,152.00,,
"US1ORLA0062","2009-03-17",,,84.00,,
"US1ORLA0062","2009-03-18",,,8.00,,
"US1ORLA0062","2009-03-19",,,0.00,,
"US1ORLA0062","2009-03-20",,,8.00,,
"US1ORLA0062","2009-03-21",,,3.00,,
"US1ORLA0062","2009-03-22",,,81.00,,
"US1ORLA0062","2009-03-23",,,8.00,,
"US1ORLA0062","2009-03-24",,,10.00,,
"US1ORLA0062","2009-03-25",,,15.00,,
"US1ORLA0062","2009-03-26",,,5.00,,
"US1ORLA0062","2009-03-27",,,0.00,,
"US1ORLA0062","2009-03-28",,,0.00,0.00,
"US1ORLA0062","2009-03-29",,,53.00,,
"US1ORLA0062","2009-03-30",,,5.00,,
"US1ORLA0062","2009-03-31",,,0.00,0.00,
"US1ORLA0062","2009-04-01",,,0.00,,
"US1ORLA0062","2009-04-03",,,13.00,,
"US1ORLA0062","2009-04-04",,,8.00,,
"US1ORLA0062","2009-04-05",,,3.00,,
"US1ORLA0062","2009-04-06",,,0.00,0.00,
"US1ORLA0062","2009-04-07",,,0.00,0.00,
"US1ORLA0062","2009-04-09",,,10.00,,
"US1ORLA0062","2009-04-10",,,61.00,,
"US1ORLA0062","2009-04-11",,,3.00,,
"US1ORLA0062","2009-04-12",,,18.00,,
"US1ORLA0062","2009-04-13",,,48.00,,
"US1ORLA0062","2009-04-14",,,66.00,,
"US1ORLA0062","2009-04-15",,,13.00,,
"US1ORLA0062","2009-04-16",,,3.00,,
"US1ORLA0062","2009-04-17",,,15.00,,
"US1ORLA0062","2009-04-18",,,25.00,,
"US1ORLA0062","2009-04-19",,,3.00,,
"US1ORLA0062","2009-04-20",,,0.00,0.00,
"US1ORLA0062","2009-04-21",,,0.00,0.00,
"US1ORLA0062","2009-04-22",,,0.00,0.00,
"US1ORLA0062","2009-04-23",,,0.00,0.00,
"US1ORLA0062","2009-04-24",,,0.00,0.00,
"US1ORLA0062","2009-04-25",,,0.00,0.00,
"US1ORLA0062","2009-04-26",,,3.00,,
"US1ORLA0062","2009-04-27",,,8.00,,
"US1ORLA0062","2009-04-28",,,18.00,,
"US1ORLA0062","2009-04-29",,,58.00,,
"US1ORLA0062","2009-04-30",,,0.00,,
"US1ORLA0062","2009-05-01",,,0.00,0.00,
"US1ORLA0062","2009-05-02",,,99.00,,
"US1ORLA0062","2009-05-03",,,99.00,,
"US1ORLA0062","2009-05-04",,,3.00,,
"US1ORLA0062","2009-05-05",,,241.00,,
"US1ORLA0062","2009-05-06",,,208.00,,
"US1ORLA0062","2009-05-07",,,79.00,,
"US1ORLA0062","2009-05-08",,,23.00,,
"US1ORLA0062","2009-05-09",,,0.00,,
"US1ORLA0062","2009-05-10",,,0.00,0.00,
"US1ORLA0062","2009-05-11",,,0.00,0.00,
"US1ORLA0062","2009-05-12",,,18.00,,
"US1ORLA0062","2009-05-13",,,18.00,,
"US1ORLA0062","2009-05-14",,,61.00,,
"US1ORLA0062","2009-05-15",,,8.00,,
"US1ORLA0062","2009-05-16",,,0.00,0.00,
"US1ORLA0062","2009-05-17",,,0.00,0.00,
"US1ORLA0062","2009-05-18",,,0.00,0.00,
"US1ORLA0062","2009-05-19",,,10.00,,
"US1ORLA0062","2009-05-20",,,5.00,,
"US1ORLA0062","2009-05-21",,,0.00,0.00,
"US1ORLA0062","2009-05-22",,,0.00,0.00,
"US1ORLA0062","2009-05-23",,,0.00,0.00,
"US1ORLA0062","2009-05-25",,,0.00,0.00,
"US1ORLA0062","2009-05-26",,,0.00,0.00,
"US1ORLA0062","2009-05-27",,,0.00,0.00,
"US1ORLA0062","2009-05-28",,,0.00,0.00,
"US1ORLA0062","2009-05-29",,,0.00,0.00,
"US1ORLA0062","2009-05-30",,,0.00,0.00,
"US1ORLA0062","2009-05-31",,,0.00,0.00,
"US1ORLA0062","2009-06-01",,,0.00,0.00,
"US1ORLA0062","2009-06-02",,,3.00,,
"US1ORLA0062","2009-06-03",,,114.00,,
"US1ORLA0062","2009-06-04",,,20.00,,
"US1ORLA0062","2009-06-05",,,43.00,,
"US1ORLA0062","2009-06-06",,,0.00,,
"US1ORLA0062","2009-06-07",,,0.00,,
"US1ORLA0062","2009-06-08",,,0.00,0.00,
"US1ORLA0062","2009-06-09",,,0.00,,
"US1ORLA0062","2009-06-10",,,0.00,0.00,
"US1ORLA0062","2009-06-17",,,0.00,0.00,
"US1ORLA0062","2009-06-18",,,0.00,0.00,
"US1ORLA0062","2009-06-25",,,0.00,,
"US1ORLA0062","2009-06-26",,,0.00,,
"US1ORLA0062","2009-06-28",,,0.00,0.00,
"US1ORLA0062","2009-06-29",,,0.00,0.00,
"US1ORLA0062","2009-06-30",,,0.00,0.00,
"US1ORLA0062","2009-07-01",,,0.00,0.00,
"US1ORLA0062","2009-07-02",,,0.00,0.00,
"US1ORLA0062","2009-07-03",,,0.00,0.00,
"US1ORLA0062","2009-07-04",,,0.00,0.00,
"US1ORLA0062","2009-07-06",,,0.00,0.00,
"US1ORLA0062","2009-07-07",,,0.00,0.00,
"US1ORLA0062","2009-07-09",,,0.00,0.00,
"US1ORLA0062","2009-07-10",,,3.00,,
"US1ORLA0062","2009-07-11",,,0.00,0.00,
"US1ORLA0062","2009-07-12",,,0.00,0.00,
"US1ORLA0062","2009-07-13",,,152.00,,
"US1ORLA0062","2009-07-14",,,0.00,,
"US1ORLA0062","2009-07-15",,,0.00,0.00,
"US1ORLA0062","2009-07-16",,,0.00,0.00,
"US1ORLA0062","2009-07-17",,,0.00,0.00,
"US1ORLA0062","2009-07-18",,,0.00,0.00,
"US1ORLA0062","2009-07-19",,,0.00,0.00,
"US1ORLA0062","2009-07-20",,,0.00,0.00,
"US1ORLA0062","2009-07-21",,,0.00,0.00,
"US1ORLA0062","2009-07-22",,,0.00,0.00,
"US1ORLA0062","2009-07-23",,,0.00,0.00,
"US1ORLA0062","2009-07-24",,,0.00,0.00,
"US1ORLA0062","2009-07-25",,,0.00,0.00,
"US1ORLA0062","2009-07-26",,,0.00,0.00,
"US1ORLA0062","2009-07-27",,,0.00,0.00,
"US1ORLA0062","2009-07-29",,,0.00,0.00,
"US1ORLA0062","2009-07-30",,,0.00,0.00,
"US1ORLA0062","2009-08-01",,,0.00,0.00,
"US1ORLA0062","2009-08-02",,,0.00,0.00,
"US1ORLA0062","2009-08-03",,,0.00,0.00,
"US1ORLA0062","2009-08-04",,,0.00,0.00,
"US1ORLA0062","2009-08-05",,,0.00,0.00,
"US1ORLA0062","2009-08-06",,,0.00,0.00,
"US1ORLA0062","2009-08-07",,,0.00,0.00,
"US1ORLA0062","2009-08-08",,,0.00,0.00,
"US1ORLA0062","2009-08-09",,,0.00,0.00,
"US1ORLA0062","2009-08-10",,,0.00,0.00,
"US1ORLA0062","2009-08-11",,,0.00,0.00,
"US1ORLA0062","2009-08-12",,,0.00,0.00,
"US1ORLA0062","2009-08-13",,,3.00,,
"US1ORLA0062","2009-08-14",,,0.00,0.00,
"US1ORLA0062","2009-08-15",,,0.00,0.00,
"US1ORLA0062","2009-08-16",,,0.00,0.00,
"US1ORLA0062","2009-08-17",,,0.00,0.00,
"US1ORLA0062","2009-08-18",,,0.00,0.00,
"US1ORLA0062","2009-08-19",,,0.00,0.00,
"US1ORLA0062","2009-08-20",,,0.00,0.00,
"US1ORLA0062","2009-08-21",,,0.00,0.00,
"US1ORLA0062","2009-08-22",,,0.00,0.00,
"US1ORLA0062","2009-08-23",,,0.00,0.00,
"US1ORLA0062","2009-08-24",,,0.00,0.00,
"US1ORLA0062","2009-08-26",,,0.00,0.00,
"US1ORLA0062","2009-08-27",,,0.00,0.00,
"US1ORLA0062","2009-08-28",,,0.00,0.00,
"US1ORLA0062","2009-08-29",,,13.00,,
"US1ORLA0062","2009-08-30",,,0.00,0.00,
"US1ORLA0062","2009-08-31",,,0.00,0.00,
"US1ORLA0062","2009-09-01",,,0.00,0.00,
"US1ORLA0062","2009-09-02",,,0.00,0.00,
"US1ORLA0062","2009-09-04",,,0.00,0.00,
"US1ORLA0062","2009-09-05",,,150.00,,
"US1ORLA0062","2009-09-06",,,30.00,,
"US1ORLA0062","2009-09-07",,,10.00,,
"US1ORLA0062","2009-09-08",,,0.00,0.00,
"US1ORLA0062","2009-09-09",,,0.00,0.00,
"US1ORLA0062","2009-09-10",,,0.00,0.00,
"US1ORLA0062","2009-09-11",,,0.00,0.00,
"US1ORLA0062","2009-09-12",,,0.00,0.00,
"US1ORLA0062","2009-09-13",,,5.00,,
"US1ORLA0062","2009-09-14",,,0.00,0.00,
"US1ORLA0062","2009-09-15",,,0.00,0.00,
"US1ORLA0062","2009-09-16",,,0.00,0.00,
"US1ORLA0062","2009-09-17",,,0.00,0.00,
"US1ORLA0062","2009-09-18",,,0.00,0.00,
"US1ORLA0062","2009-09-19",,,0.00,0.00,
"US1ORLA0062","2009-09-20",,,53.00,,
"US1ORLA0062","2009-09-21",,,0.00,,
"US1ORLA0062","2009-09-22",,,0.00,0.00,
"US1ORLA0062","2009-09-23",,,0.00,0.00,
"US1ORLA0062","2009-09-24",,,0.00,0.00,
"US1ORLA0062","2009-09-25",,,0.00,0.00,
"US1ORLA0062","2009-09-26",,,0.00,0.00,
"US1ORLA0062","2009-09-27",,,0.00,0.00,
"US1ORLA0062","2009-09-29",,,30.00,,
"US1ORLA0062","2009-09-30",,,20.00,,
"US1ORLA0062","2009-10-01",,,5.00,,
"US1ORLA0062","2009-10-02",,,5.00,,
"US1ORLA0062","2009-10-03",,,8.00,,
"US1ORLA0062","2009-10-04",,,20.00,,
"US1ORLA0062","2009-10-05",,,0.00,,
"US1ORLA0062","2009-10-07",,,0.00,0.00,
"US1ORLA0062","2009-10-09",,,0.00,0.00,
"US1ORLA0062","2009-10-10",,,0.00,0.00,
"US1ORLA0062","2009-10-11",,,0.00,0.00,
"US1ORLA0062","2009-10-12",,,0.00,0.00,
"US1ORLA0062","2009-10-13",,,10.00,,
"US1ORLA0062","2009-10-14",,,178.00,,
"US1ORLA0062","2009-10-15",,,58.00,,
"US1ORLA0062","2009-10-16",,,3.00,,
"US1ORLA0062","2009-10-17",,,0.00,0.00,
"US1ORLA0062","2009-10-18",,,48.00,,
"US1ORLA0062","2009-10-19",,,0.00,,
"US1ORLA0062","2009-10-20",,,3.00,,
"US1ORLA0062","2009-10-21",,,81.00,,
"US1ORLA0062","2009-10-22",,,3.00,,